WBGSWBGG

Guest
Details From WBGS - Sibu
To WBGG - Kuching Intl
Flight Number -
Tags generated
Created
Modified
Stats Distance 113 nm / 209 km
Max Altitude 14,300 ft / 4,359 m
Waypoints 3
Social Downloads 2
Likes 0
Share VATSIM

Download

Looking for another format? Having issues loading an existing format? Contact us
Advertisement - Login to hide

Notes

Basic altitude profile: - Ascent Rate: 1000ft/min - Ascent Speed: 160kts - Cruise Altitude: 14000ft - Cruise Speed: 210kts - Descent Rate: 1000ft/min - Descent Speed: 160kts Options: - Use NATs: yes - Use PACOTS: yes - Use low airways: yes - Use high airways: yes

Route

WBGS AGPOP WBGG

ID Type Via Altitude Latitude Longitude Leg Dist Tot Dist Heading (true) Name
O WBGS APT - 0 ft / 0 m 2.26160˚ 111.98532˚ - 0 nm - Sibu
AGPOP FIX - 14,300 ft / 4,359 m 2.17833˚ 111.22361˚ 45 nm 45 nm 264° / 264° -
O WBGG APT - 0 ft / 0 m 1.48470˚ 110.34693˚ 67 nm 113 nm 232° / 232° Kuching Intl

Altitude Profile

Advertisement - Login to hide

WBGS

Details ICAO WBGS (SBW)
Name Sibu
Region Brunei and Malaysia
Timezone Asia/Kuching (UTC+8.0)
Stats Elevation 122 ft / 37 m (AMSL)
Location 2.261603° 111.985324°
Runways 1
Magnetic Variation 0.212° E

METAR

WBGS 260600Z VRB02KT 9999 SCT018 BKN150 29/24 Q1007

Decode

TAF

TAF WBGS 260500Z 2606/2706 VRB03KT 9999 SCT014 TEMPO 2610/2614 4000 TSRA FEW015CB

Decode

Departure Runways

ID Width Length Bearing (true) Bearing (mag) Surface Threshold Offset Overrun Length
13 148 ft / 45 m 9,054 ft / 2,760 m 130.44° 130.23° Asphalt 0 ft / 0 m 190 ft / 58 m
31 148 ft / 45 m 9,054 ft / 2,760 m 310.44° 310.23° Asphalt 0 ft / 0 m 195 ft / 59 m

WBGG

Details ICAO WBGG (KCH)
Name Kuching Intl
Region Brunei and Malaysia
Timezone Asia/Kuching (UTC+8.0)
Stats Elevation 89 ft / 27 m (AMSL)
Location 1.484698° 110.346932°
Runways 1
Magnetic Variation 0.333° E

METAR

WBGG 260630Z 05004KT 340V110 9999 SCT020 BKN150 30/25 Q1007 NOSIG

Decode

TAF

TAF WBGG 260500Z 2606/2706 VRB03KT 9999 SCT020 TEMPO 2607/2611 5000 SHRA FEW015CB

Decode

Destination Runways

ID Width Length Bearing (true) Bearing (mag) Surface Threshold Offset Overrun Length
07 151 ft / 46 m 8,012 ft / 2,442 m 68.26° 67.93° Asphalt 0 ft / 0 m 0 ft / 0 m
25 151 ft / 46 m 8,012 ft / 2,442 m 248.26° 247.93° Asphalt 320 ft / 98 m 0 ft / 0 m

Approach Navaids

Runway Type Ident Frequency Range Bearing (true) Bearing (mag) Slope Elevation
25 Localiser IKG 110.30 MHz 18 nm / 33 km 248.23° 247.89° - 89 ft / 27 m (AMSL)
25 Glidescope IKG 110.30 MHz 10 nm / 19 km 248.26° 247.93° 3.00° 89 ft / 27 m (AMSL)
25 DME IKG 110.30 MHz 18 nm / 33 km - - - 89 ft / 27 m (AMSL)

Popular Alternatives